This is the latest recevied weather packets stored in our database for station/object K5SVV. If no packets are shown the sender has not sent any weather packets the latest 10 day(s).
| Time | Temp. | Humidity | Pressure | Rain* | Wind** | Luminosity | Snow |
|---|---|---|---|---|---|---|---|
| 1777928843 | 25.56° C | 67% | 1008.1 hPa | 0 mm | - | 286 W/m² | - |
| 1777928540 | 26.11° C | 66% | 1008.1 hPa | 0 mm | - | 588 W/m² | - |
| 1777928237 | 26.11° C | 66% | 1008 hPa | 0 mm | - | 668 W/m² | - |
| 1777927935 | 26.67° C | 66% | 1008.2 hPa | 0 mm | - | 687 W/m² | - |
| 1777927632 | 26.11° C | 66% | 1008.2 hPa | 0 mm | - | 729 W/m² | - |
| 1777927331 | 26.11° C | 66% | 1008.4 hPa | 0 mm | - | 702 W/m² | - |
| 1777927030 | 26.11° C | 65% | 1008.3 hPa | 0 mm | - | 643 W/m² | - |
| 1777926726 | 25.56° C | 66% | 1008.6 hPa | 0 mm | - | 371 W/m² | - |
| 1777926421 | 26.11° C | 66% | 1008.7 hPa | 0 mm | - | 350 W/m² | - |
| 1777926118 | 26.11° C | 65% | 1008.7 hPa | 0 mm | - | 759 W/m² | - |
| 1777925815 | 26.11° C | 65% | 1008.8 hPa | 0 mm | - | 750 W/m² | - |
| 1777925513 | 26.11° C | 65% | 1009.1 hPa | 0 mm | - | 741 W/m² | - |
| 1777925210 | 26.11° C | 65% | 1009.2 hPa | 0 mm | - | 785 W/m² | - |
| 1777924906 | 25.56° C | 66% | 1009.4 hPa | 0 mm | - | 780 W/m² | - |
| 1777924602 | 26.11° C | 65% | 1009.3 hPa | 0 mm | - | 356 W/m² | - |
| 1777924298 | 25.56° C | 66% | 1009.7 hPa | 0 mm | - | 767 W/m² | - |
| 1777923995 | 25.56° C | 64% | 1009.7 hPa | 0 mm | - | 730 W/m² | - |
| 1777923691 | 25.56° C | 66% | 1009.5 hPa | 0 mm | - | 730 W/m² | - |
| 1777923388 | 25.56° C | 64% | 1009.5 hPa | 0 mm | - | 786 W/m² | - |
| 1777923086 | 25.56° C | 65% | 1009.7 hPa | 0 mm | - | 803 W/m² | - |
| 1777922784 | 25.56° C | 65% | 1009.7 hPa | 0 mm | - | 764 W/m² | - |
| 1777922481 | 25.56° C | 64% | 1009.6 hPa | 0 mm | - | 728 W/m² | - |
| 1777922180 | 25.56° C | 65% | 1009.6 hPa | 0 mm | - | 670 W/m² | - |
| 1777921876 | 25.56° C | 65% | 1009.9 hPa | 0 mm | - | 730 W/m² | - |
| 1777921572 | 25.56° C | 66% | 1010.5 hPa | 0 mm | - | 813 W/m² | - |
* Rain latest hour (hover to see other rain measurements)
** Current wind speed in m/s (hover to see current wind gust speed)